Temperature
17 17 17 18 21 22 22 22 21 20 20 19 18 19 21 21 21 20 15 15 15 15 15 15 15 15 15 15 15 15 15 15 15 15 15 15 15 15 15 15 15 15 15 15 15 15 15 15 15
17 17 17 19 21 22 22 21 20 20 19 17 17 18 19 18 16 15 14 15 14 14 14 15 15 15 15 15 15 15 15 15 15 15 15 15 15 15 14 14 14 14 15 15 15 15 15 14 14
16 17 17 20 21 22 22 20 20 18 17 17 17 17 18 17 14 14 14 14 14 14 14 14 15 15 15 15 15 15 15 15 15 15 15 15 15 15 14 14 14 14 14 14 14 14 14 14 14
16 16 18 20 20 20 20 20 18 18 17 16 17 17 15 13 13 13 14 14 14 14 14 14 14 14 14 14 15 15 15 15 15 15 15 15 15 15 14 14 14 14 14 14 14 14 14 14 14
16 18 19 19 19 19 18 17 17 18 18 16 17 17 16 13 13 13 14 14 14 13 13 14 14 14 14 14 14 14 15 15 15 15 15 14 14 14 14 14 14 14 14 14 14 14 14 14 14
16 18 20 20 20 18 18 16 16 17 17 16 16 17 15 13 13 13 13 13 13 13 13 13 14 14 14 14 14 14 14 14 15 15 15 14 14 14 14 14 14 14 14 14 14 14 14 14 14
17 18 19 19 19 18 17 15 16 17 17 16 15 17 15 13 13 13 13 13 13 13 13 13 13 13 14 14 14 14 14 14 14 14 14 14 14 14 14 14 14 14 14 14 14 13 14 14 13
15 17 17 18 18 18 16 14 14 15 16 14 14 16 15 12 12 12 13 13 13 13 13 13 13 13 13 13 13 14 14 14 14 14 14 14 14 14 14 14 14 14 14 14 13 13 13 13 13
13 17 17 17 17 17 15 14 13 12 13 13 12 13 12 12 12 12 12 12 12 13 13 12 13 13 13 13 13 13 13 14 14 14 14 14 13 13 13 13 13 13 13 13 13 13 13 13 13
14 16 16 15 15 15 14 14 13 13 14 13 12 11 11 12 12 12 12 12 12 12 12 12 12 12 13 13 13 13 13 13 13 13 13 13 13 13 13 13 13 13 13 13 13 13 13 13 12
13 15 14 13 12 12 13 13 12 14 15 14 13 12 11 11 11 11 11 11 12 12 12 12 12 12 12 12 12 12 13 13 13 13 13 13 13 13 13 13 13 13 13 13 13 13 13 12 12
12 12 12 12 10 11 12 12 12 12 13 12 12 11 11 11 11 11 11 11 11 11 11 12 12 12 12 12 12 12 12 12 12 12 12 12 12 12 12 12 12 12 12 12 12 12 12 12 12
12 11 10 10 10 10 10 11 11 11 11 11 11 10 10 11 11 11 11 11 11 11 11 11 11 11 11 11 12 12 12 12 12 12 12 12 12 12 12 12 12 12 12 12 12 12 12 12 12
11 10 10 10 10 9 10 11 10 11 10 10 10 10 10 10 10 10 10 10 11 11 11 11 11 11 11 11 11 11 11 12 12 12 12 12 12 12 12 12 12 12 12 12 12 12 11 11 11
9 10 11 10 10 9 10 11 12 11 10 10 10 10 10 10 9 10 10 10 10 10 10 10 10 11 11 11 11 11 11 11 11 11 11 11 11 11 11 11 11 11 11 11 11 11 11 11 11
10 11 12 11 10 9 10 13 13 10 9 10 10 9 9 9 9 9 10 10 10 10 10 10 10 10 10 10 10 10 10 10 11 11 11 11 11 11 11 11 11 11 11 11 11 10 10 10 10
11 12 12 11 10 10 10 12 12 9 9 10 9 9 9 9 9 9 9 9 9 10 10 10 9 9 10 10 10 10 10 10 10 10 10 10 10 10 10 10 10 10 10 10 10 10 10 10 10
12 12 11 11 10 9 10 11 11 10 9 9 9 9 9 8 8 9 9 9 9 9 9 9 9 9 9 9 9 9 9 10 10 10 10 10 10 10 10 10 10 10 10 10 9 9 9 9 9
10 10 11 11 9 9 10 10 11 10 10 9 9 9 9 8 8 8 8 8 8 8 9 9 9 9 9 9 9 9 9 9 9 9 9 9 9 9 9 9 9 9 9 9 9 9 9 9 8
9 10 10 9 8 9 9 10 11 10 10 9 9 9 9 8 8 7 8 8 8 8 8 8 8 8 8 8 8 8 8 9 9 9 9 9 9 9 9 9 9 9 9 9 9 8 8 8 8
9 9 10 9 8 8 9 11 11 11 9 8 8 8 8 8 7 7 7 7 7 8 8 8 8 8 8 8 8 8 8 8 8 8 9 9 9 9 8 8 8 8 8 8 8 8 8 8 8
9 8 8 8 8 10 9 11 12 11 10 10 9 8 7 7 7 7 7 7 7 7 7 7 7 8 8 7 7 7 7 7 8 8 8 8 8 8 8 8 8 8 8 8 8 8 8 7 7
8 7 7 7 8 8 9 9 12 11 11 10 9 8 7 7 6 6 6 6 7 7 7 7 7 7 7 7 7 7 7 7 7 7 7 7 7 7 7 7 7 7 7 7 7 7 7 7 6
6 6 7 7 7 8 9 9 12 12 11 10 10 8 7 6 6 6 6 6 6 7 7 7 7 7 7 7 6 6 6 6 6 7 7 7 7 7 7 7 7 7 7 7 7 7 7 6 6
7 8 8 9 9 10 8 8 11 10 9 9 9 8 7 6 5 5 6 6 6 6 6 6 6 6 6 6 6 6 6 6 6 6 6 6 6 6 6 6 6 6 6 6 6 6 6 6 6
7 7 9 10 10 11 7 8 11 9 8 7 7 6 6 6 5 5 5 5 5 5 6 6 5 6 6 5 5 5 5 5 5 5 5 5 5 6 6 6 6 6 6 6 6 6 6 6 5
6 7 7 7 6 8 10 9 9 8 8 7 7 6 6 5 5 5 5 5 5 5 5 5 5 5 5 5 5 5 5 5 5 5 5 5 5 5 5 5 5 5 5 5 5 5 5 5 5
6 6 6 7 8 9 10 10 11 9 8 8 7 7 6 5 4 4 4 5 5 4 4 4 4 4 4 4 4 4 4 4 4 4 4 4 5 5 4 4 4 4 4 5 5 5 5 5 5
5 5 6 6 7 8 10 11 10 8 8 7 7 6 5 5 4 4 4 4 4 4 4 4 4 3 4 4 4 4 4 4 4 4 4 4 4 4 4 4 4 4 4 4 4 4 4 4 4
5 6 6 7 6 6 8 10 8 7 6 6 6 5 5 4 4 4 3 3 3 3 3 3 3 3 3 3 3 3 3 3 3 3 3 3 3 3 3 4 4 4 4 4 3 4 4 4 4
Wind_Speed
8 5 3 3 4 4 8 5 3 4 3 1 1 1 2 1 1 2 3 2 2 3 4 6 6 6 7 7 7 7 8 8 8 8 7 7 7 7 7 7 7 8 8 8 8 8 9 9 9
6 3 3 3 6 9 7 6 6 4 2 2 1 1 1 1 2 3 2 2 1 3 4 6 7 7 7 7 7 7 7 7 7 7 7 6 6 6 6 6 7 7 7 8 8 8 8 8 8
3 2 2 3 6 9 6 4 4 3 2 2 2 1 0 1 2 2 3 1 2 3 4 6 7 7 6 6 6 6 7 7 7 7 6 6 6 6 6 6 6 6 6 7 7 7 7 7 7
2 2 2 5 9 7 4 3 2 4 3 2 2 3 2 3 2 2 2 1 3 4 4 6 6 7 6 6 6 6 7 7 7 6 6 6 5 5 5 6 6 6 6 6 6 6 6 6 6
2 3 5 8 10 6 3 3 3 4 3 2 3 2 2 3 3 3 2 2 3 4 4 6 6 6 6 6 6 6 6 7 6 6 6 6 5 5 5 5 5 5 5 5 5 5 6 5 5
3 4 8 11 11 7 5 4 5 5 4 2 2 3 2 3 3 3 2 2 3 3 3 5 5 5 5 6 5 5 6 6 6 6 6 5 5 5 5 5 5 4 4 5 5 4 5 5 5
4 5 8 10 9 8 5 4 5 5 5 3 2 3 3 3 3 2 2 2 3 3 3 3 4 4 5 5 5 4 4 5 5 5 5 5 5 4 5 5 5 4 4 4 4 3 4 4 4
2 4 7 8 10 8 5 4 3 4 4 1 2 3 2 1 2 2 2 2 3 3 2 2 2 3 3 4 5 4 4 5 5 4 5 5 5 4 5 4 4 4 4 4 4 3 3 3 4
2 6 9 8 8 5 5 5 3 1 2 2 1 0 2 2 2 3 2 2 2 2 1 1 1 1 1 2 3 4 4 4 5 4 5 5 4 4 4 3 4 3 3 3 4 3 3 3 3
4 8 8 3 3 4 5 4 3 4 5 4 3 1 1 3 2 2 1 1 0 0 0 1 0 0 0 1 2 2 3 4 4 4 4 3 3 3 3 5 4 3 3 4 3 3 3 3 3
3 6 4 3 2 2 4 3 3 5 6 6 5 4 2 2 2 2 2 1 1 1 1 1 1 1 0 0 1 1 1 2 3 3 3 2 3 3 3 3 4 3 4 3 3 4 3 3 2
3 2 2 3 2 3 4 3 4 6 4 1 2 3 4 4 4 3 3 2 1 2 1 1 1 1 1 1 1 1 1 1 1 2 3 2 2 2 2 2 2 2 2 2 3 3 3 4 4
4 3 2 2 2 3 4 6 5 7 6 3 2 4 5 5 5 4 3 3 2 2 2 1 2 1 1 1 1 1 2 2 2 2 2 3 2 3 2 2 2 2 2 3 3 4 4 4 4
3 3 2 3 4 3 4 6 6 8 5 5 5 5 5 5 5 4 4 4 4 3 3 2 2 2 1 1 1 2 2 1 2 2 3 3 3 3 3 3 3 3 3 3 3 4 4 4 4
3 3 3 3 4 2 3 8 9 7 5 6 6 5 5 5 5 5 5 5 5 4 3 2 2 2 2 2 2 2 2 2 2 2 3 4 4 4 3 3 3 3 4 4 4 4 4 4 4
3 4 4 3 3 3 5 9 4 3 5 7 6 6 5 5 5 5 5 5 5 5 3 2 2 2 2 2 2 2 2 2 2 2 3 4 4 5 4 4 4 4 4 4 3 3 4 4 4
4 5 6 4 3 3 7 8 3 3 5 7 7 6 6 5 5 5 4 5 5 4 3 3 2 2 2 2 2 2 2 2 2 3 3 4 5 5 5 4 4 5 4 4 4 4 4 5 4
4 5 5 6 2 4 8 10 8 6 7 8 7 7 7 6 6 5 4 4 4 3 3 3 2 2 2 2 2 2 2 2 2 3 4 4 5 5 5 4 5 5 4 4 5 5 5 5 4
2 4 6 4 2 5 9 12 11 9 9 9 9 8 8 8 7 4 4 3 3 3 3 3 3 2 2 2 2 2 3 2 3 3 4 5 5 5 5 4 4 4 5 5 6 5 6 4 3
3 4 5 3 2 4 8 12 11 10 10 9 9 9 9 8 6 5 4 3 4 4 4 4 4 3 3 3 3 3 3 3 3 4 4 5 5 5 5 5 5 5 5 6 6 5 5 4 3
4 6 5 5 5 4 7 9 8 6 7 7 7 7 7 7 6 5 4 3 4 4 4 4 4 4 4 4 3 2 2 3 3 4 4 4 5 5 5 6 6 6 6 6 6 6 7 5 5
5 3 4 5 5 4 3 6 6 5 6 6 5 5 5 4 4 3 3 3 3 4 4 4 4 4 4 3 3 4 4 5 5 4 4 5 5 6 6 6 7 6 6 7 7 6 6 6 6
2 0 3 4 4 5 5 5 7 4 6 5 4 3 3 3 3 3 3 3 3 3 3 3 3 4 4 4 4 5 6 5 4 4 5 5 5 6 6 6 6 7 6 7 7 7 7 7 7
2 2 1 3 3 5 6 7 7 4 5 4 3 1 1 1 1 2 2 2 2 3 3 3 3 3 4 4 5 6 6 6 6 6 6 5 4 5 6 6 6 7 7 7 7 8 8 8 8
3 2 2 3 4 5 2 6 7 1 2 4 3 1 0 1 1 2 2 2 3 3 3 3 3 4 4 4 5 6 6 7 7 7 6 6 5 5 6 6 6 7 7 7 8 8 9 9 9
5 4 3 4 4 3 3 8 4 0 2 3 3 2 0 1 2 2 3 3 3 4 3 3 4 4 4 4 5 6 6 5 6 7 7 7 7 6 6 7 7 7 8 8 7 7 9 8 9
4 4 2 1 2 5 6 6 5 2 3 3 3 2 0 1 2 3 3 3 3 4 4 4 4 5 5 5 5 5 6 6 7 7 7 7 7 6 7 7 7 7 7 8 8 7 9 9 9
2 3 3 4 4 6 6 7 4 4 5 4 3 2 1 2 3 3 4 4 4 4 5 5 4 5 5 5 5 5 5 6 7 7 8 8 8 7 8 8 8 8 8 8 8 8 8 9 9
5 5 4 3 3 4 6 4 1 4 4 4 2 2 2 3 4 4 5 5 5 5 4 5 4 5 5 6 6 6 6 6 6 7 7 7 8 8 8 8 8 8 8 8 8 9 9 9 9
5 6 7 5 5 5 6 6 1 3 3 3 3 3 4 4 5 5 5 5 5 5 5 5 5 5 6 6 6 6 6 6 6 7 7 7 8 8 8 8 8 8 9 9 9 10 9 10 10
Wind_Direction
325 309 263 228 213 221 228 208 199 170 165 130 108 218 207 213 302 66 57 61 72 136 139 136 125 134 137 134 133 132 128 123 121 119 116 112 110 107 104 104 101 101 99 98 96 92 91 89 89
321 297 231 222 227 224 220 208 200 184 138 129 151 179 163 118 35 52 63 34 94 136 136 130 122 133 134 132 130 134 131 128 126 124 121 117 112 107 107 108 103 102 103 99 94 92 92 92 91
306 285 224 206 224 231 218 186 196 172 148 179 163 161 253 81 41 32 26 36 140 135 133 120 119 127 130 133 133 137 139 135 132 131 127 124 118 113 111 110 106 103 106 105 100 95 94 93 92
256 201 209 224 223 228 232 180 176 173 172 188 188 148 122 50 9 6 16 130 141 135 137 124 125 124 124 127 132 134 140 140 137 138 134 129 123 119 118 113 107 106 110 109 105 101 99 100 97
237 213 207 221 228 223 223 216 190 196 180 175 198 185 138 66 27 33 62 124 136 136 129 128 123 123 124 123 123 127 138 140 140 138 137 131 122 117 117 117 114 107 109 113 113 109 106 106 103
196 215 222 224 221 217 210 207 208 214 203 179 195 191 149 83 42 37 65 115 128 132 127 123 118 124 124 121 125 127 133 138 143 140 137 132 126 123 121 121 120 114 117 116 116 115 116 115 115
212 212 229 229 223 219 204 194 207 217 210 204 211 194 159 104 32 37 80 102 107 110 108 115 132 132 126 125 124 126 135 134 128 136 134 128 131 134 134 130 124 119 118 121 119 122 123 123 121
237 213 224 226 224 219 183 184 210 229 222 186 219 213 178 116 41 69 85 90 99 100 99 108 116 126 139 142 126 129 135 136 131 126 131 132 138 140 139 143 135 130 123 122 118 112 121 125 130
222 223 226 222 221 205 177 186 180 216 198 188 207 301 26 100 107 94 79 79 92 91 85 87 98 111 132 146 141 149 150 150 153 148 143 161 172 171 167 151 142 144 134 132 124 114 107 132 145
209 224 230 230 230 193 180 196 186 186 205 209 192 155 99 130 134 126 121 88 107 128 81 30 49 98 115 139 155 169 172 169 179 179 173 183 187 182 181 151 150 157 153 146 137 131 153 200 192
207 228 216 209 206 206 203 207 206 210 224 225 220 201 177 177 177 184 201 211 280 289 289 332 330 310 271 249 191 182 176 178 190 188 181 189 194 184 185 168 171 181 179 185 180 190 212 225 226
194 217 223 214 215 230 228 222 224 230 239 252 243 216 203 206 209 217 229 239 254 279 279 294 299 318 310 286 248 215 210 208 207 202 202 198 199 204 197 192 193 199 209 218 223 230 232 235 232
206 202 218 230 224 249 249 242 251 244 248 252 237 213 214 220 227 237 247 249 248 261 265 283 294 292 316 306 286 263 244 229 226 222 221 216 213 212 209 209 201 217 232 229 236 239 236 239 240
177 176 209 248 238 244 246 252 246 244 234 227 225 227 229 232 238 247 252 257 255 260 255 251 269 280 276 280 269 266 253 238 247 241 243 234 230 225 215 219 214 217 227 242 246 247 243 242 241
164 179 225 237 233 228 245 248 231 235 229 232 231 235 239 244 244 246 252 258 261 263 251 246 248 264 260 257 270 270 254 234 247 248 244 241 238 233 231 227 226 225 229 235 242 245 246 246 246
182 204 228 206 216 218 232 249 216 210 223 234 235 238 241 247 247 255 262 263 263 261 248 244 244 252 258 261 264 271 265 250 250 255 251 245 241 235 232 236 234 234 226 228 235 237 239 241 246
199 224 234 222 204 226 229 254 225 211 233 239 241 242 244 249 254 262 267 265 261 255 249 245 246 252 262 265 263 265 270 269 263 255 256 252 244 236 236 239 242 237 228 228 231 237 240 243 248
214 228 236 238 221 239 240 254 257 245 246 250 249 246 247 250 255 259 262 263 264 256 256 249 249 257 269 261 253 257 266 272 275 267 259 257 251 242 239 240 243 241 233 228 227 233 238 244 249
229 234 250 258 292 265 254 264 266 257 248 248 248 249 249 251 255 255 258 260 262 262 260 253 260 260 256 255 254 249 259 274 270 272 269 260 254 249 241 243 242 237 237 236 230 229 234 241 243
219 245 260 264 285 270 276 276 267 252 244 246 250 249 249 254 253 253 259 258 256 262 266 257 256 259 252 251 255 248 257 259 267 267 266 263 257 251 246 242 241 238 239 243 236 227 230 238 224
237 247 263 278 296 258 284 274 249 232 235 245 249 251 253 249 249 251 262 271 270 270 269 266 260 259 257 256 252 250 259 257 257 265 261 264 264 259 252 247 244 239 236 238 237 227 223 232 229
245 258 265 265 268 270 274 281 255 234 237 238 242 240 244 245 249 254 262 274 277 279 275 266 262 260 261 255 246 243 248 258 265 271 262 261 259 258 253 250 247 244 239 238 238 234 232 229 232
244 242 247 249 249 270 243 256 268 230 235 228 222 223 236 251 255 263 270 276 284 292 289 280 271 264 264 258 254 251 254 259 266 269 270 264 255 252 253 250 248 247 244 241 238 236 234 232 235
160 164 202 219 234 253 234 235 267 230 226 213 202 202 242 265 278 291 295 298 304 313 307 294 282 278 273 262 255 253 259 262 262 262 271 273 262 253 251 250 248 248 247 245 240 235 234 234 235
191 203 235 231 230 244 180 237 256 267 225 221 214 211 332 329 331 333 335 330 330 324 321 311 296 289 284 272 263 260 261 261 260 263 264 271 268 263 262 260 256 254 250 247 243 238 236 236 238
202 219 234 249 256 267 219 242 256 317 249 232 231 228 254 356 355 346 342 336 335 330 326 325 318 305 295 285 278 270 268 265 264 264 263 263 264 262 265 265 262 260 256 252 248 245 241 239 238
193 212 265 260 283 269 249 256 276 208 213 207 213 208 237 348 348 340 335 335 333 329 323 323 318 315 312 302 294 282 277 272 269 269 268 267 265 263 263 262 263 265 260 254 250 248 246 243 241
248 183 186 209 243 263 262 255 245 204 198 197 208 221 305 335 335 331 329 327 325 323 319 316 315 312 312 310 302 294 288 282 278 272 269 269 270 268 267 264 263 263 262 258 253 252 250 245 244
183 190 203 207 245 257 274 268 226 218 202 204 225 256 295 312 316 318 321 320 316 315 316 311 312 312 311 311 307 301 297 293 285 278 275 272 272 269 267 267 265 264 262 259 256 255 253 249 247
231 217 203 221 228 234 265 271 102 224 215 224 256 284 296 301 309 314 319 316 311 311 313 311 309 309 309 308 306 302 301 299 294 288 283 279 273 270 267 266 265 264 263 260 257 257 255 252 250
Height
1515 1515 1517 1519 1518 1514 1511 1511 1512 1515 1516 1519 1520 1519 1517 1517 1519 1525 1525 1523 1523 1524 1526 1526 1527 1528 1529 1530 1531 1532 1532 1533 1533 1533 1533 1533 1533 1533 1533 1533 1533 1533 1533 1533 1533 1532 1532 1532 1532
1515 1516 1518 1518 1513 1511 1510 1510 1513 1514 1518 1520 1520 1520 1520 1521 1523 1524 1523 1522 1523 1524 1526 1526 1527 1528 1529 1530 1531 1532 1532 1533 1533 1533 1533 1533 1533 1534 1534 1534 1534 1534 1534 1534 1533 1533 1533 1532 1532
1515 1516 1519 1514 1510 1507 1508 1511 1513 1518 1520 1520 1520 1521 1521 1523 1523 1523 1523 1523 1524 1525 1526 1526 1527 1528 1529 1530 1531 1531 1532 1533 1533 1533 1533 1533 1533 1533 1534 1534 1534 1534 1534 1534 1534 1533 1533 1533 1532
1515 1518 1517 1513 1510 1509 1510 1513 1517 1518 1520 1521 1520 1521 1523 1523 1523 1523 1522 1523 1524 1524 1525 1526 1527 1528 1529 1530 1530 1531 1531 1532 1532 1533 1533 1533 1533 1533 1533 1533 1533 1534 1534 1534 1533 1533 1533 1533 1533
1515 1516 1513 1511 1509 1511 1513 1516 1518 1517 1518 1520 1520 1520 1522 1523 1521 1522 1522 1522 1523 1524 1525 1525 1526 1527 1528 1529 1530 1530 1531 1531 1532 1532 1533 1533 1533 1533 1533 1533 1533 1533 1533 1533 1533 1533 1533 1533 1533
1516 1513 1509 1506 1507 1511 1514 1517 1518 1517 1518 1520 1521 1520 1522 1522 1521 1521 1522 1522 1523 1524 1524 1525 1526 1526 1527 1528 1529 1529 1530 1531 1531 1531 1532 1532 1532 1532 1532 1533 1533 1533 1533 1533 1532 1533 1533 1532 1532
1515 1511 1506 1504 1506 1509 1514 1517 1517 1517 1517 1520 1520 1520 1521 1522 1521 1521 1521 1522 1522 1523 1523 1524 1525 1525 1526 1527 1528 1528 1529 1530 1530 1530 1531 1531 1532 1532 1532 1532 1532 1532 1532 1532 1532 1532 1532 1532 1532
1513 1512 1509 1507 1506 1508 1514 1517 1518 1518 1518 1520 1520 1519 1520 1521 1520 1521 1521 1521 1522 1522 1523 1523 1524 1524 1525 1526 1526 1527 1528 1529 1529 1529 1530 1530 1531 1531 1531 1531 1531 1531 1531 1531 1531 1531 1531 1531 1531
1513 1512 1507 1506 1507 1509 1515 1516 1518 1518 1519 1519 1519 1520 1520 1519 1519 1520 1520 1521 1521 1521 1522 1522 1523 1523 1524 1524 1525 1526 1526 1527 1527 1528 1528 1529 1529 1529 1529 1529 1530 1530 1530 1530 1530 1530 1530 1530 1530
1512 1508 1506 1510 1511 1512 1514 1515 1517 1517 1517 1518 1519 1519 1518 1518 1519 1519 1519 1519 1519 1520 1520 1521 1521 1522 1522 1523 1523 1524 1525 1525 1526 1526 1526 1527 1527 1527 1528 1528 1528 1528 1528 1528 1528 1528 1528 1528 1528
1511 1509 1511 1514 1515 1515 1515 1516 1516 1516 1514 1516 1517 1517 1517 1517 1517 1518 1518 1518 1518 1518 1519 1519 1519 1520 1520 1521 1521 1522 1522 1523 1523 1524 1524 1525 1525 1525 1526 1526 1526 1526 1526 1526 1526 1526 1527 1527 1526
1513 1514 1514 1515 1516 1516 1515 1515 1516 1515 1515 1515 1516 1516 1516 1516 1516 1516 1516 1516 1516 1516 1516 1517 1517 1517 1518 1519 1519 1520 1520 1520 1521 1521 1522 1522 1522 1523 1523 1523 1524 1524 1524 1524 1524 1524 1525 1525 1525
1512 1514 1516 1516 1516 1516 1516 1515 1515 1513 1514 1514 1514 1514 1514 1514 1514 1515 1515 1514 1514 1514 1514 1514 1515 1515 1515 1516 1517 1517 1518 1518 1518 1518 1519 1519 1520 1520 1521 1521 1521 1521 1521 1522 1522 1522 1522 1522 1522
1513 1514 1515 1515 1515 1515 1515 1513 1514 1510 1512 1512 1512 1512 1513 1513 1513 1512 1512 1512 1512 1512 1512 1512 1512 1512 1513 1513 1514 1515 1515 1515 1516 1516 1516 1516 1517 1517 1518 1518 1518 1518 1519 1519 1519 1519 1519 1520 1520
1514 1514 1514 1514 1514 1514 1515 1510 1509 1509 1510 1510 1510 1510 1510 1510 1510 1510 1510 1510 1509 1509 1509 1509 1509 1509 1510 1510 1511 1512 1512 1512 1513 1513 1513 1513 1514 1514 1514 1515 1515 1515 1516 1516 1516 1516 1516 1517 1516
1513 1511 1508 1511 1513 1513 1515 1502 1504 1507 1507 1507 1508 1508 1508 1508 1507 1507 1507 1507 1507 1507 1506 1506 1506 1506 1507 1507 1508 1508 1509 1509 1509 1509 1510 1510 1510 1511 1511 1512 1512 1512 1512 1512 1512 1513 1513 1513 1513
1508 1505 1504 1508 1511 1511 1510 1501 1504 1506 1506 1505 1505 1505 1505 1505 1505 1504 1504 1504 1504 1503 1503 1503 1503 1503 1503 1504 1504 1505 1505 1506 1506 1506 1506 1506 1507 1507 1508 1508 1508 1508 1508 1508 1509 1509 1509 1509 1509
1503 1502 1504 1504 1508 1510 1507 1501 1502 1504 1504 1503 1502 1502 1502 1502 1501 1501 1501 1501 1501 1501 1501 1501 1501 1500 1500 1501 1501 1502 1502 1502 1502 1502 1502 1502 1503 1503 1504 1504 1504 1504 1504 1505 1505 1505 1506 1506 1506
1506 1506 1504 1505 1510 1509 1503 1500 1498 1499 1500 1499 1499 1499 1499 1499 1499 1498 1498 1498 1498 1498 1498 1498 1498 1497 1497 1497 1497 1497 1498 1498 1498 1498 1498 1498 1498 1499 1499 1499 1500 1500 1500 1501 1501 1501 1501 1501 1502
1509 1507 1505 1507 1510 1508 1502 1497 1493 1494 1495 1495 1495 1495 1495 1495 1496 1495 1495 1495 1495 1495 1495 1495 1495 1494 1494 1494 1494 1494 1494 1494 1494 1494 1494 1494 1494 1494 1494 1494 1495 1496 1496 1496 1496 1497 1496 1497 1497
1508 1507 1505 1507 1508 1507 1504 1489 1486 1489 1491 1492 1492 1492 1492 1492 1492 1492 1492 1492 1492 1492 1492 1491 1491 1491 1491 1491 1491 1490 1490 1490 1490 1489 1489 1489 1489 1489 1490 1490 1490 1491 1491 1491 1492 1492 1492 1492 1493
1506 1510 1510 1510 1507 1500 1503 1489 1480 1483 1486 1488 1489 1489 1489 1490 1490 1490 1489 1489 1489 1488 1488 1488 1488 1488 1487 1487 1487 1487 1486 1486 1486 1485 1484 1484 1485 1485 1485 1485 1486 1486 1486 1486 1487 1487 1487 1488 1488
1509 1512 1512 1510 1508 1505 1501 1499 1477 1481 1481 1483 1486 1487 1487 1488 1488 1487 1487 1486 1486 1486 1485 1485 1485 1484 1484 1484 1483 1483 1482 1482 1482 1481 1480 1480 1480 1480 1481 1480 1480 1481 1481 1481 1481 1482 1482 1482 1483
1513 1513 1512 1511 1507 1502 1496 1494 1475 1475 1477 1480 1483 1485 1486 1486 1486 1485 1485 1484 1484 1483 1483 1482 1481 1481 1480 1480 1479 1479 1478 1478 1477 1476 1476 1475 1475 1475 1475 1476 1476 1476 1476 1476 1476 1476 1476 1477 1478
1511 1508 1503 1500 1498 1489 1498 1495 1477 1476 1480 1481 1483 1485 1485 1485 1485 1484 1483 1482 1481 1481 1480 1479 1478 1477 1477 1476 1476 1475 1474 1474 1473 1472 1471 1471 1470 1470 1470 1470 1470 1470 1470 1470 1471 1471 1471 1471 1472
1508 1506 1501 1495 1488 1483 1498 1488 1474 1480 1481 1481 1483 1484 1484 1484 1484 1483 1481 1480 1480 1479 1478 1477 1476 1475 1474 1473 1472 1471 1471 1470 1469 1468 1467 1467 1466 1465 1465 1465 1465 1465 1465 1465 1465 1465 1465 1465 1465
1507 1505 1507 1504 1506 1498 1481 1479 1477 1479 1479 1480 1481 1482 1483 1483 1482 1481 1480 1479 1478 1477 1476 1474 1473 1472 1471 1470 1468 1467 1467 1466 1465 1464 1463 1462 1461 1460 1460 1459 1459 1459 1459 1459 1459 1459 1459 1459 1459
1508 1507 1507 1504 1497 1485 1474 1474 1468 1473 1475 1477 1479 1481 1482 1482 1481 1480 1479 1477 1476 1475 1473 1472 1470 1469 1467 1466 1465 1463 1462 1461 1460 1459 1458 1457 1456 1455 1454 1454 1453 1453 1453 1453 1453 1453 1453 1453 1452
1508 1509 1505 1502 1500 1488 1476 1468 1469 1472 1474 1476 1479 1480 1480 1480 1479 1478 1477 1476 1474 1473 1471 1469 1468 1466 1465 1463 1462 1460 1458 1457 1455 1454 1453 1452 1451 1450 1449 1448 1448 1448 1447 1447 1447 1446 1447 1446 1446
1505 1502 1501 1498 1497 1497 1485 1473 1472 1473 1475 1477 1478 1478 1479 1478 1477 1476 1474 1473 1471 1470 1468 1466 1465 1463 1462 1460 1458 1456 1454 1453 1451 1450 1449 1448 1446 1445 1444 1443 1442 1442 1441 1441 1440 1440 1440 1440 1440